Dalhart, TX

1:12 AM CDT on June 24, 2017 (GMT -0500)
Dalhart Municipal

Weather History for KDHT - April, 2013

Change the Weather History Date:

Thursday, April 18, 2013

  Actual Average Record
Temperature  
Mean Temperature 35 °F 54 °F  
Max Temperature 44 °F 70 °F 91 °F (1994)
Min Temperature 25 °F 38 °F 21 °F (1953)
Degree Days  
Heating Degree Days 30 11  
Month to date heating degree days 289 239  
Since 1 July heating degree days 4147 4493  
Cooling Degree Days 0 0  
Month to date cooling degree days 1 0  
Year to date cooling degree days 1 0  
Moisture  
Dew Point 17 °F    
Average Humidity 51    
Maximum Humidity 78    
Minimum Humidity 24    
Precipitation  
Precipitation T in 0.03 in 0.79 in (1988)
Month to date precipitation T 0.58  
Year to date precipitation 0.86 2.67  
Snow  
Snow T in 0.10 in T in (2013)
Month to date snowfall T 1.0  
Since 1 July snowfall 21.6 18.7  
Snow Depth T in    
Sea Level Pressure  
Sea Level Pressure 30.09 in    
Wind  
Wind Speed 18 mph (North)    
Max Wind Speed 33 mph    
Max Gust Speed 40 mph    
Visibility 9 miles    
Events Snow    
T = Trace of Precipitation, MM = Missing Value Source: NWS Daily Summary

Daily Weather History Graph

Daily Weather History Graph

Search for Another Location

Airport or City:

Trip Planner

Search our weather history database for the weather conditions in past years. The results will help you decide how hot, cold, wet, or windy it might be!

Date:

Astronomy

Apr. 18, 2013 Rise Set
Actual Time 7:12 AM CDT 8:26 PM CDT
Civil Twilight 6:46 AM CDT 8:53 PM CDT
Nautical Twilight 6:14 AM CDT 9:25 PM CDT
Astronomical Twilight 5:41 AM CDT 9:58 PM CDT
Moon 1:28 PM CDT (4/18) 2:40 AM CDT (4/18)
Length of Visible Light 14h 07m
Length of Day
13h 13m
First Quarter, 52% of the Moon is Illuminated
Apr 18
First Quarter
Apr 25
Full
May 2
Last Quarter
May 9
New
May 17
First Quarter

Hourly Weather History & Observations

Time (CDT) Temp. Windchill Dew Point Humidity Pressure Visibility Wind Dir Wind Speed Gust Speed Precip Events Conditions
12:19 AM 32.0 °F 17.9 °F 28.4 °F 87% 29.95 in 2.0 mi North 28.8 mph 36.8 mph 0.00 in Snow Light Snow
12:30 AM 30.2 °F 16.2 °F 26.6 °F 86% 29.96 in 4.0 mi North 25.3 mph 36.8 mph 0.00 in Snow Light Snow
12:50 AM 30.2 °F 15.4 °F 26.6 °F 86% 29.97 in 10.0 mi North 28.8 mph 43.7 mph 0.00 in   Mostly Cloudy
12:53 AM 30.9 °F 16.7 °F 26.1 °F 82% 29.99 in 10.0 mi North 27.6 mph 40.3 mph 0.00 in   Mostly Cloudy
1:53 AM 30.0 °F 16.0 °F 25.0 °F 82% 30.00 in 9.0 mi North 25.3 mph 36.8 mph 0.00 in   Overcast
2:53 AM 28.0 °F 13.3 °F 23.0 °F 81% 30.02 in 10.0 mi North 25.3 mph 33.4 mph 0.00 in   Overcast
3:53 AM 27.0 °F 11.0 °F 19.9 °F 75% 30.01 in 10.0 mi North 28.8 mph 39.1 mph N/A   Clear
4:53 AM 26.1 °F 10.4 °F 18.0 °F 71% 30.01 in 10.0 mi NNW 26.5 mph 35.7 mph N/A   Clear
5:53 AM 25.0 °F 10.2 °F 18.0 °F 75% 30.05 in 10.0 mi North 21.9 mph 31.1 mph N/A   Clear
6:53 AM 25.0 °F 11.7 °F 17.1 °F 72% 30.08 in 10.0 mi North 17.3 mph - N/A   Clear
7:53 AM 26.1 °F 13.1 °F 17.1 °F 69% 30.10 in 10.0 mi NNW 17.3 mph 25.3 mph N/A   Clear
8:53 AM 28.0 °F 14.3 °F 18.0 °F 66% 30.12 in 10.0 mi North 21.9 mph 29.9 mph N/A   Clear
9:53 AM 32.0 °F 18.6 °F 18.0 °F 56% 30.12 in 10.0 mi North 25.3 mph 35.7 mph N/A   Overcast
10:53 AM 33.1 °F 20.9 °F 18.0 °F 54% 30.12 in 10.0 mi NNW 21.9 mph 31.1 mph N/A   Mostly Cloudy
11:53 AM 37.0 °F 25.4 °F 15.1 °F 41% 30.12 in 10.0 mi North 25.3 mph 32.2 mph N/A   Scattered Clouds
12:53 PM 39.9 °F 29.5 °F 17.1 °F 40% 30.12 in 10.0 mi North 24.2 mph 32.2 mph N/A   Scattered Clouds
1:53 PM 41.0 °F 31.4 °F 14.0 °F 33% 30.11 in 10.0 mi NNW 21.9 mph 34.5 mph N/A   Partly Cloudy
2:53 PM 42.1 °F 32.6 °F 10.9 °F 28% 30.12 in 10.0 mi North 23.0 mph 34.5 mph N/A   Clear
3:53 PM 43.0 °F 34.0 °F 10.9 °F 27% 30.12 in 10.0 mi North 21.9 mph 31.1 mph N/A   Clear
4:53 PM 43.0 °F 34.5 °F 10.9 °F 27% 30.11 in 10.0 mi NNW 19.6 mph 28.8 mph N/A   Clear
5:53 PM 44.1 °F 37.1 °F 10.0 °F 25% 30.12 in 10.0 mi North 15.0 mph 28.8 mph N/A   Clear
6:53 PM 43.0 °F 37.2 °F 9.0 °F 25% 30.14 in 10.0 mi North 10.4 mph 20.7 mph N/A   Clear
7:53 PM 42.1 °F 34.9 °F 10.0 °F 27% 30.15 in 10.0 mi North 13.8 mph - N/A   Clear
8:53 PM 37.0 °F 29.8 °F 12.9 °F 37% 30.18 in 10.0 mi North 10.4 mph - N/A   Clear
9:53 PM 35.1 °F 27.4 °F 15.1 °F 44% 30.21 in 10.0 mi North 10.4 mph - N/A   Clear
10:53 PM 34.0 °F 28.0 °F 16.0 °F 48% 30.24 in 10.0 mi North 6.9 mph - N/A   Clear
11:53 PM 33.1 °F - 16.0 °F 50% 30.24 in 10.0 mi Calm Calm - N/A   Mostly Cloudy